Airfield :
LOGIN :

Register | Disclaimer

   EN    FR    IT 

 










Legend :    VFR   Marginal VFR   IFR   Intensive IFR   Very Intensive IFR
Visi :
Ceiling :
>= 8 km
>= 3000ft
5 to 8 km
1000 to 3000 ft
1500m to 5 km
500 to 1000 ft
800 to 1500m
200 to 500 ft
< 800m
< 200 ft
Symbols :   Thunderstorms  Fog  Heavy snow  Heavy precipitations  Wind > 20 kt
SIGMETs :     Misc.  Thunderstorms  Icing  Turbulence  Mountain Waves  Volcanic Ashes







- Airport Elevation : 1079 ft


ETIK - Illesheim Air Base

CURRENT METAR :
  • 221156Z AUTO 07012KT 9999 FEW130 01/M09 A3006 RMK AO2 SLP203 T00111087 10012 21066 57010 $

EXPIRED METARs :
  • 221056Z AUTO 05014KT 9999 CLR 01/M08 A3007 RMK AO2 SLP206 T00061084 $
  • 220956Z AUTO 05016G20KT 9999 SCT120 M01/M07 A3007 RMK AO2 SLP208 T10071073 $

TAF AMD TAF ETIK
Valid from the 22 at 11:00 until the 23 at 12:00 UTC


221120Z 2211/2312 07012G18KT 9999 FEW029 QNH2998INS
TEMPO 2211/2216 07015G25KT
BECMG 2215/2216 06015KT 9999 SCT020 QNH2996INS
BECMG 2307/2308 07015KT 9999 SCT020 QNH2998INS TX01/2212Z TNM07/2306Z
No reported NOTAMs for that airfield.



MET'MAP, your aeronautical weather chart ! - Copyright ORBIFLY December 2007 - Disclaimer

ORBIFLY MET'MAP TEAM :

Programming & Development : Alexandra Zaïnal
Concept & Development : Baudouin d'Aumeries
Co-Development & Prog : Marc-Olivier Méhu
Technical & hardware support : Manuel Goepfert

Contact : metmap@orbifly.com




SOURCES & CREDITS :

   NOAA